{"data":{"norad_id":64826,"epoch":"2026-05-25T04:53:32.208000Z","epoch_age_seconds":57716,"freshness":"FRESH","line1":"1 64826U 25151L   26145.20384500  .00001886  00000+0  27632-3 0  9995","line2":"2 64826  51.9006 322.2121 0000703 106.5108 253.5932 14.79934049 47834","mean_motion":14.79934049,"eccentricity":7.03e-5,"inclination_deg":51.9006,"raan_deg":322.2121,"arg_perigee_deg":106.5108,"mean_anomaly_deg":253.5932,"bstar":0.00027632,"rev_number":4783,"period_min":97.30163320271,"perigee_km":629.03967859086,"apogee_km":630.02495689693,"semimajor_km":7007.6693177439,"source":"CELESTRAK","updated_at":"2026-05-25T13:38:04.824279Z"}}